Préparation des vols

Pour bien préparer vos sorties, pensez à télécharger la fiche technique de votre avion, la check-list, le manuel de vol, le devis de centrage ou encore un modèle de Log de Nav.

Robin DR 400 120 (F-GSBN)

Type : 3/4 places instruction, entraînement, voyage.

Moteur : Lycoming 4 cyl. à plat, 120 cv.

Performances : 190 km/h

Autonomie : 4 h soit environ 760 km franchissables.

Avionique : 1 radio com Bendix/King, 1 VOR, 1 transpondeur mode S, intercom 2 voies type.

 

Robin DR 400 120 (F-GNNY)

Type : 3/4 places instruction, entraînement, voyage.

Moteur : Lycoming 4 cyl. à plat, 120 cv.

Performances : 190 km/h

Autonomie : 4 h soit environ 760 km franchissables.

Avionique : 1 radio com Bendix/King, 1 VOR, 1 transpondeur mode S, intercom 2 voies type.

 

Robin DR 400 (F-BXRY)

Type : 2/3 places en instruction & entraînement (devis de centrage).

Moteur : Lycoming 4 cyl. à plat, 108 cv.

Performances : 180 km/h

Autonomie : 4 h soit environ 720 km franchissables.

Avionique : 1 radio com Bendix/King, 1 VOR, 1 transpondeur.

Robin DR 400 140 B (F-GHPJ)

Type : 4 places, pour entraînement et voyage.

Moteur : Robin Lycoming 4 cyl. à plat, 160 cv.

Performances : 206 km/h

Autonomie : 3 h 30 min soit environ 720 km de distance franchissable.

Avionique : 1 radio com Bendix/King, 1 VOR, 1 transpondeur mode S, intercom 4 voies.

 

Robin DR 400 180 (F-BVMP)

Type : 4 places pour le voyage.

Moteur : Lycoming 4 cyl. à plat, 180 cv.

Performances : 250 km/h

Autonomie : 4 h soit environ 1000 km franchissables.

Avionique : 1 radio 8.33, 1 transpondeur mode S et 1 Garmin GNS 430

 

Piper Archer II (PA 28) (F-GALA)

 


Sab’in Shoot, photographe à Villepreux

Type : 4 places, pour entraînement, voyage.

Moteur : Lycoming 4 cyl. à plat, 180 cv.

Performances : 220 km/h

Autonomie : 5 h30 soit environ 1200 km de distance franchissable.

Avionique : Radio intégrée au système GPS Garmin GNS 430, 2 VOR, 1 DME, 1 transpondeur mode S, pilote automatique 2 axes, intercom 4 voies et boite de mélange.

 

Télécharger l’aide mémoire de la radio GTR 225A

Télécharger l’aide mémoire de la radio GNC 255A

Télécharger un log de nav

Log 1

Cliquez sur le formulaire pour le télécharger

Log_1*Notice d’utilisation*

Ce Log de Nav a été optimisé pour rendre les calculs automatiques sous Excel. Indiquez simplement vos points de report, les altitudes et les distances en NM. La feuille calcule alors le temps sans vent pour chaque étape et donne le total, qu’elle convertit en heure-minutes. Elle calcule également la distance totale et la convertit en kilomètres. Enfin, elle affiche le résultat du devis carburant, calculé automatiquement par le 2ème feuillet. Vous pouvez également inscrire préalablement les fréquences Radio et Nav. Les autres cases sont à remplir pendant le vol : date, top départ, heure estimée (grisée), heure réelle,horamètre, Atis…
Bons vols à tous !
Guillaume

Log 2

Cliquez sur le formulaire pour le télécharger

Log_2

Log 3

 Cliquez sur le formulaire pour le télécharger

Log_3

L’alphabet Morse et l’alphabet international

Alphabet International

Nos coordonnées

Aéroclub Renault

Aérodrome de Chavenay

78450 Chavenay-Villepreux

telephone

Atis

Télécharger la VAC LFPX

Télécharger le calcul de centrage

Télécharger la feuille ATIS

Télécharger le mémo VFR 2018-2019

METARS / TAF de Toussus, Evreux, Orly et Roissy

Toussus

LFPN 112100Z AUTO 24007KT CAVOK 04/02 Q1007 NOSIG

TAF TAF AMD LFPN 132015Z 1320/1420 17005KT 5000 BKN025 TEMPO 1320/1324 2000 BR OVC008 PROB30 TEMPO 1320/1324 0800 FG OVC002

Evreux

LFOE 112200Z AUTO 21006KT 9999 BKN019/// BKN037/// BKN054/// ///CB 05/04 Q1007

TAF LFOE 111940Z 1119/1215 CNL

Orly

LFPO 112130Z 24005KT 190V260 CAVOK 05/03 Q1008 NOSIG

TAF LFPO 111700Z 1118/1224 24010KT 9999 SCT030 PROB30 TEMPO 1118/1119 24010G20KT 7000 SHRA SCT017 BKN025TCU PROB40 TEMPO 1200/1206 4000 SHRA BKN009 SCT025TCU TEMPO 1206/1209 BKN012 TEMPO 1211/1216 7000 SHRA BKN025TCU PROB30 TEMPO 1212/1214 24015G25KT 4000 SHRA SCT012 BKN025CB PROB40 TEMPO 1220/1224 SHRA BKN012 SCT030TCU

Roissy

LFPG 112200Z 24009KT 9999 SCT020CB BKN024 05/03 Q1007 TEMPO -SHRASN

TAF AMD LFPG 112148Z 1121/1224 26010KT 9999 FEW025 TX08/1214Z TN04/1122Z PROB40 TEMPO 1121/1123 SHRAGS SCT020CB TEMPO 1200/1209 BKN012 PROB30 TEMPO 1201/1209 BKN006 BECMG 1208/1210 FEW015TCU PROB30 TEMPO 1209/1214 FEW015CB BECMG 1215/1217 NSC

Share This